GW3945 Weather Reports


Display with metric or nautical units.
time (UTC)temp
F
wind
direction
speed
MPH
gust
MPH
rain 1hr
in
rain 24hr
in
rain mn
in
humidity
%
barometer
mb
20260905193603 96 225 0.0 0.0 0.00 0.00 0.00 50 1011.2
20260905193058 96 198 0.0 0.0 0.00 0.00 0.00 52 1011.0
20260905192553 96 203 2.0 2.0 0.00 0.00 0.00 50 1011.1
20260905192050 95 288 0.0 0.0 0.00 0.00 0.00 51 1011.1
20260905191548 96 233 0.0 0.0 0.00 0.00 0.00 51 1011.2
20260905191042 96 204 0.0 0.0 0.00 0.00 0.00 53 1011.1
20260905190540 96 222 0.0 0.0 0.00 0.00 0.00 52 1011.1
20260905190040 96 234 0.0 0.0 0.00 0.00 0.00 54 1011.3
20260905185539 95 224 0.0 0.0 0.00 0.00 0.00 54 1011.4
20260905185038 95 234 0.0 0.0 0.00 0.00 0.00 52 1011.5
20260905184533 95 225 0.0 0.0 0.00 0.00 0.00 54 1011.6
20260905184031 94 246 0.0 0.0 0.00 0.00 0.00 56 1011.8
20260905183526 94 207 0.0 0.0 0.00 0.00 0.00 58 1011.8
20260905183021 94 285 3.0 3.0 0.00 0.00 0.00 54 1011.8
20260905182521 94 225 0.0 0.0 0.00 0.00 0.00 56 1012.1
20260905182015 94 231 0.0 0.0 0.00 0.00 0.00 55 1012.0
20260905181510 95 277 1.0 2.0 0.00 0.00 0.00 53 1011.9
20260905181009 95 223 0.0 0.0 0.00 0.00 0.00 55 1012.3
20260905180504 95 230 0.0 0.0 0.00 0.00 0.00 55 1012.2
20260905175959 95 233 0.0 0.0 0.00 0.00 0.00 54 1012.3
20260905175458 94 244 1.0 2.0 0.00 0.00 0.00 54 1012.3
20260905174954 94 237 0.0 0.0 0.00 0.00 0.00 55 1012.4
20260905174449 94 231 0.0 0.0 0.00 0.00 0.00 55 1012.4
20260905173945 94 234 0.0 0.0 0.00 0.00 0.00 57 1012.4
20260905173441 93 265 0.0 0.0 0.00 0.00 0.00 60 1012.2
20260905172936 93 218 0.0 0.0 0.00 0.00 0.00 60 1012.6
20260905172434 93 286 0.0 1.0 0.00 0.00 0.00 59 1012.6
20260905171930 93 229 0.0 0.0 0.00 0.00 0.00 59 1012.8
20260905171427 93 229 0.0 0.0 0.00 0.00 0.00 61 1012.6
20260905170923 93 220 0.0 0.0 0.00 0.00 0.00 65 1012.6
20260905170419 92 210 0.0 0.0 0.00 0.00 0.00 62 1012.7
20260905165918 92 291 2.0 2.0 0.00 0.00 0.00 62 1012.8
20260905165414 92 254 1.0 1.0 0.00 0.00 0.00 64 1012.9
20260905164909 92 251 0.0 0.0 0.00 0.00 0.00 63 1013.0
20260905164409 91 219 0.0 0.0 0.00 0.00 0.00 64 1012.6
20260905163904 91 222 0.0 0.0 0.00 0.00 0.00 64 1012.8
20260905163400 91 234 0.0 0.0 0.00 0.00 0.00 63 1012.9
20260905162855 91 223 0.0 0.0 0.00 0.00 0.00 64 1013.2
20260905162350 91 240 1.0 1.0 0.00 0.00 0.00 66 1013.2
20260905161845 91 221 0.0 0.0 0.00 0.00 0.00 66 1013.4
20260905161344 91 222 0.0 0.0 0.00 0.00 0.00 66 1013.4
20260905160843 91 202 0.0 0.0 0.00 0.00 0.00 66 1013.3
20260905160337 90 202 0.0 0.0 0.00 0.00 0.00 67 1013.3
20260905155831 90 197 0.0 0.0 0.00 0.00 0.00 72 1013.4
20260905155330 89 197 0.0 0.0 0.00 0.00 0.00 73 1013.4
20260905154825 88 196 0.0 0.0 0.00 0.00 0.00 71 1013.6
20260905154320 88 195 0.0 0.0 0.00 0.00 0.00 76 1013.4
20260905153815 87 192 0.0 0.0 0.00 0.00 0.00 80 1013.5
20260905153312 87 196 0.0 0.0 0.00 0.00 0.00 80 1013.7
20260905152806 86 197 0.0 0.0 0.00 0.00 0.00 77 1013.7
20260905152306 86 197 0.0 0.0 0.00 0.00 0.00 81 1013.5
20260905151800 86 197 0.0 0.0 0.00 0.00 0.00 81 1013.7
20260905151256 85 198 0.0 0.0 0.00 0.00 0.00 81 1013.8
20260905150750 85 199 0.0 0.0 0.00 0.00 0.00 82 1013.6
20260905150250 84 199 0.0 0.0 0.00 0.00 0.00 84 1013.7
20260905145747 84 199 0.0 0.0 0.00 0.00 0.00 85 1013.7
20260905145242 83 199 0.0 0.0 0.00 0.00 0.00 85 1013.8
20260905144741 82 199 0.0 0.0 0.00 0.00 0.00 86 1013.7
20260905144237 82 200 0.0 0.0 0.00 0.00 0.00 87 1013.6
20260905143735 81 199 0.0 0.0 0.00 0.00 0.00 88 1013.9
20260905143235 80 199 0.0 0.0 0.00 0.00 0.00 89 1013.9
20260905142733 78 198 0.0 0.0 0.00 0.00 0.00 91 1013.9
20260905142228 78 203 0.0 0.0 0.00 0.00 0.00 92 1013.9
20260905141724 78 201 0.0 0.0 0.00 0.00 0.00 93 1014.0
20260905141220 78 201 0.0 0.0 0.00 0.00 0.00 93 1014.0
20260905140715 77 201 0.0 0.0 0.00 0.00 0.00 93 1014.0
20260905140209 77 201 0.0 0.0 0.00 0.00 0.00 93 1014.1
20260905135703 77 201 0.0 0.0 0.00 0.00 0.00 93 1014.0
20260905135200 77 201 0.0 0.0 0.00 0.00 0.00 93 1013.9
20260905134659 77 201 0.0 0.0 0.00 0.00 0.00 91 1013.9
20260905134158 77 201 0.0 0.0 0.00 0.00 0.00 92 1013.8
20260905133653 77 201 0.0 0.0 0.00 0.00 0.00 93 1014.0
20260905133154 77 200 0.0 0.0 0.00 0.00 0.00 94 1014.2
20260905132653 77 200 0.0 0.0 0.00 0.00 0.00 93 1014.0
20260905132148 77 200 0.0 0.0 0.00 0.00 0.00 92 1013.9
20260905131643 77 200 0.0 0.0 0.00 0.00 0.00 91 1013.9
20260905131138 76 200 0.0 0.0 0.00 0.00 0.00 92 1013.9
20260905130633 76 200 0.0 0.0 0.00 0.00 0.00 93 1014.1
20260905130132 76 201 0.0 0.0 0.00 0.00 0.00 93 1014.0
20260905125626 75 201 0.0 0.0 0.00 0.00 0.00 94 1013.8
20260905125123 75 201 0.0 0.0 0.00 0.00 0.00 95 1013.9
20260905124619 75 201 0.0 0.0 0.00 0.00 0.00 96 1014.2
20260905124115 75 201 0.0 0.0 0.00 0.00 0.00 96 1014.0
20260905123609 75 201 0.0 0.0 0.00 0.00 0.00 96 1013.9
20260905123106 75 201 0.0 0.0 0.00 0.00 0.00 96 1013.9
20260905122601 75 201 0.0 0.0 0.00 0.00 0.00 96 1014.0
20260905122101 74 201 0.0 0.0 0.00 0.00 0.00 96 1013.9
20260905121555 74 201 0.0 0.0 0.00 0.00 0.00 96 1013.7
20260905121051 74 201 0.0 0.0 0.00 0.00 0.00 97 1013.7
20260905120550 74 201 0.0 0.0 0.00 0.00 0.00 97 1013.8
20260905120045 73 201 0.0 0.0 0.00 0.00 0.00 97 1013.5
20260905115544 73 201 0.0 0.0 0.00 0.00 0.00 97 1013.4
20260905115039 73 201 0.0 0.0 0.00 0.00 0.00 97 1013.5
20260905114538 73 201 0.0 0.0 0.00 0.00 0.00 97 1013.4
20260905114038 73 201 0.0 0.0 0.00 0.00 0.00 96 1013.4
20260905113533 74 201 0.0 0.0 0.00 0.00 0.00 97 1013.2
20260905113028 74 201 0.0 0.0 0.00 0.00 0.00 96 1012.9
20260905112523 74 201 0.0 0.0 0.00 0.00 0.00 96 1012.8
20260905112019 74 201 0.0 0.0 0.00 0.00 0.00 96 1013.0
20260905111513 73 201 0.0 0.0 0.00 0.00 0.00 96 1013.0
20260905111013 73 201 0.0 0.0 0.00 0.00 0.00 96 1012.9
20260905110512 74 202 0.0 0.0 0.00 0.00 0.00 97 1012.9
20260905110007 73 201 0.0 0.0 0.00 0.00 0.00 97 1012.8
20260905105501 73 201 0.0 0.0 0.00 0.00 0.00 97 1012.8
20260905105001 73 201 0.0 0.0 0.00 0.00 0.00 97 1012.5
20260905104456 73 201 0.0 0.0 0.00 0.00 0.00 97 1012.5
20260905103951 74 201 0.0 0.0 0.00 0.00 0.00 97 1012.5
20260905103446 73 201 0.0 0.0 0.00 0.00 0.00 97 1012.7
20260905102942 73 201 0.0 0.0 0.00 0.00 0.00 96 1012.6
20260905102438 74 201 0.0 0.0 0.00 0.00 0.00 96 1012.6
20260905101933 74 201 0.0 0.0 0.00 0.00 0.00 96 1012.5
20260905101432 74 201 0.0 0.0 0.00 0.00 0.00 96 1012.6
20260905100927 74 207 0.0 0.0 0.00 0.00 0.00 96 1012.6
20260905100422 74 201 0.0 0.0 0.00 0.00 0.00 96 1012.4
20260905095921 74 201 0.0 0.0 0.00 0.00 0.00 96 1012.6
20260905095416 74 201 0.0 0.0 0.00 0.00 0.00 96 1012.4
20260905094910 74 201 0.0 0.0 0.00 0.00 0.00 96 1012.5
20260905094407 74 201 0.0 0.0 0.00 0.00 0.00 96 1012.4
20260905093905 74 201 0.0 0.0 0.00 0.00 0.00 96 1012.6
20260905093401 74 201 0.0 0.0 0.00 0.00 0.00 96 1012.3
20260905092856 75 201 0.0 0.0 0.00 0.00 0.00 95 1012.2
20260905092356 75 201 0.0 0.0 0.00 0.00 0.00 95 1012.3
20260905091851 74 201 0.0 0.0 0.00 0.00 0.00 94 1012.5
20260905091346 74 201 0.0 0.0 0.00 0.00 0.00 95 1012.4
20260905090845 75 200 0.0 0.0 0.00 0.00 0.00 95 1012.2
20260905090341 75 200 0.0 0.0 0.00 0.00 0.00 95 1012.2
20260905085839 75 201 0.0 0.0 0.00 0.00 0.00 95 1012.2
20260905085339 75 199 0.0 0.0 0.00 0.00 0.00 94 1012.2
20260905084835 75 199 0.0 0.0 0.00 0.00 0.00 94 1012.2
20260905084334 75 203 0.0 0.0 0.00 0.00 0.00 93 1012.4
20260905083829 75 211 0.0 0.0 0.00 0.00 0.00 95 1012.3
20260905083326 74 193 0.0 0.0 0.00 0.00 0.00 96 1012.3
20260905082820 75 198 0.0 0.0 0.00 0.00 0.00 96 1012.3
20260905082317 75 198 0.0 0.0 0.00 0.00 0.00 96 1012.4
20260905081811 75 199 0.0 0.0 0.00 0.00 0.00 96 1012.4
20260905081306 75 198 0.0 0.0 0.00 0.00 0.00 96 1012.5
20260905080805 75 198 0.0 0.0 0.00 0.00 0.00 96 1012.4
20260905080300 75 198 0.0 0.0 0.00 0.00 0.00 96 1012.0
20260905075758 75 198 0.0 0.0 0.00 0.00 0.00 95 1012.4
20260905075253 75 197 0.0 0.0 0.00 0.00 0.00 96 1012.2
20260905074751 75 199 0.0 0.0 0.00 0.00 0.00 96 1012.2
20260905074247 75 199 0.0 0.0 0.00 0.00 0.00 96 1012.1
20260905073737 75 199 0.0 0.0 0.00 0.00 0.00 96 1012.3
20260905073233 75 200 0.0 0.0 0.00 0.00 0.00 95 1012.2
20260905072732 75 205 0.0 0.0 0.00 0.00 0.00 95 1012.3
20260905072227 75 205 0.0 0.0 0.00 0.00 0.00 95 1012.5
20260905071724 75 198 0.0 0.0 0.00 0.00 0.00 96 1012.6
20260905071220 75 197 0.0 0.0 0.00 0.00 0.00 96 1012.4
20260905070714 75 197 0.0 0.0 0.00 0.00 0.00 96 1012.6
20260905070211 75 197 0.0 0.0 0.00 0.00 0.00 96 1012.6
20260905065709 76 197 0.0 0.0 0.00 0.00 0.00 96 1012.7
20260905065203 75 197 0.0 0.0 0.00 0.00 0.00 95 1012.7
20260905064659 75 198 0.0 0.0 0.00 0.00 0.00 96 1012.7
20260905064154 75 198 0.0 0.0 0.00 0.00 0.00 96 1012.8
20260905063653 76 198 0.0 0.0 0.00 0.00 0.00 96 1012.8
20260905063149 76 198 0.0 0.0 0.00 0.00 0.00 95 1012.7
20260905062645 76 198 0.0 0.0 0.00 0.00 0.00 94 1013.0
20260905062144 76 198 0.0 0.0 0.00 0.00 0.00 94 1012.9
20260905061639 77 199 0.0 0.0 0.00 0.00 0.00 94 1012.9
20260905061138 77 198 0.0 0.0 0.00 0.00 0.00 93 1012.9
20260905060634 77 200 0.0 0.0 0.00 0.00 0.00 93 1012.9
20260905060130 77 212 0.0 0.0 0.00 0.00 0.00 93 1012.9
20260905055628 77 204 0.0 0.0 0.00 0.00 0.00 93 1012.9
20260905055124 77 201 0.0 0.0 0.00 0.00 0.00 93 1012.9
20260905054620 76 199 0.0 0.0 0.00 0.00 0.00 93 1012.6
20260905054115 76 199 0.0 0.0 0.00 0.00 0.00 95 1012.7
20260905053615 76 196 0.0 0.0 0.00 0.00 0.00 95 1012.8
20260905053110 77 197 0.0 0.0 0.00 0.00 0.00 95 1012.8
20260905052609 77 197 0.0 0.0 0.00 0.00 0.00 94 1013.0
20260905052104 77 197 0.0 0.0 0.00 0.00 0.00 94 1012.9
20260905051559 77 221 0.0 0.0 0.00 0.00 0.00 94 1012.7
20260905051056 77 195 0.0 0.0 0.00 0.00 0.00 94 1012.5
20260905050552 77 194 0.0 0.0 0.00 0.00 0.00 94 1012.6
20260905050049 77 194 0.0 0.0 0.00 0.00 0.00 94 1012.7
20260905045543 77 194 0.0 0.0 0.00 0.00 0.00 94 1012.5
20260905045038 78 201 0.0 0.0 0.00 0.00 0.00 94 1012.6
20260905044532 78 192 0.0 0.0 0.00 0.00 0.00 93 1012.8
20260905044027 78 190 0.0 0.0 0.00 0.00 0.00 93 1012.9
20260905043526 78 198 0.0 0.0 0.00 0.00 0.00 91 1012.9
20260905043022 78 216 0.0 0.0 0.00 0.00 0.00 93 1013.0
20260905042520 78 220 0.0 0.0 0.00 0.00 0.00 93 1012.8
20260905042016 79 220 0.0 0.0 0.00 0.00 0.00 90 1012.9
20260905041511 78 237 0.0 0.0 0.00 0.00 0.00 90 1012.9
20260905041007 79 220 0.0 0.0 0.00 0.00 0.00 92 1012.9
20260905040506 79 220 0.0 0.0 0.00 0.00 0.00 91 1013.3
20260905040005 78 245 0.0 0.0 0.00 0.00 0.00 90 1013.2
20260905035500 78 243 0.0 0.0 0.00 0.00 0.00 93 1013.2
20260905034958 79 218 0.0 0.0 0.00 0.00 0.00 92 1013.2
20260905034458 79 220 0.0 0.0 0.00 0.00 0.00 91 1013.5
20260905033956 79 226 0.0 0.0 0.00 0.00 0.00 90 1013.3
20260905033451 78 215 0.0 0.0 0.00 0.00 0.00 92 1013.4
20260905032946 77 215 0.0 0.0 0.00 0.00 0.00 94 1013.5
20260905032441 78 203 0.0 0.0 0.00 0.00 0.00 95 1013.3
20260905031936 78 207 0.0 0.0 0.00 0.00 0.00 95 1013.3
20260905031432 79 223 0.0 0.0 0.00 0.00 0.00 92 1013.5
20260905030927 80 226 0.0 0.0 0.00 0.00 0.00 92 1013.5
20260905030423 80 216 0.0 0.0 0.00 0.00 0.00 91 1013.4
20260905025921 79 227 0.0 0.0 0.00 0.00 0.00 88 1013.3
20260905025417 79 218 0.0 0.0 0.00 0.00 0.00 92 1013.5
20260905024914 82 219 0.0 0.0 0.00 0.00 0.00 89 1013.3
20260905024413 82 228 0.0 0.0 0.00 0.00 0.00 86 1013.6
20260905023909 82 226 0.0 0.0 0.00 0.00 0.00 82 1013.4
20260905023404 81 234 0.0 0.0 0.00 0.00 0.00 84 1013.6
20260905022903 80 251 0.0 0.0 0.00 0.00 0.00 88 1013.4
20260905022353 81 217 0.0 0.0 0.00 0.00 0.00 90 1013.5
20260905021848 81 225 0.0 0.0 0.00 0.00 0.00 85 1013.4
20260905021343 81 245 0.0 0.0 0.00 0.00 0.00 89 1013.4
20260905020838 82 217 0.0 0.0 0.00 0.00 0.00 89 1013.5
20260905020332 82 223 0.0 0.0 0.00 0.00 0.00 85 1013.4
20260905015832 81 238 0.0 0.0 0.00 0.00 0.00 87 1013.5
20260905015331 81 216 0.0 0.0 0.00 0.00 0.00 90 1013.5
20260905014825 82 215 0.0 0.0 0.00 0.00 0.00 90 1013.4
20260905014321 82 222 0.0 0.0 0.00 0.00 0.00 86 1013.5
20260905013816 82 220 0.0 0.0 0.00 0.00 0.00 86 1013.5
20260905013312 82 217 0.0 0.0 0.00 0.00 0.00 89 1013.3
20260905012807 82 236 0.0 0.0 0.00 0.00 0.00 89 1013.0
20260905012306 82 223 0.0 0.0 0.00 0.00 0.00 85 1013.2
20260905011759 80 227 0.0 0.0 0.00 0.00 0.00 87 1013.0
20260905011255 80 243 0.0 0.0 0.00 0.00 0.00 93 1013.5
20260905010755 82 160 2.0 2.0 0.00 0.00 0.00 92 1013.4
20260905010250 82 223 0.0 0.0 0.00 0.00 0.00 89 1012.8
20260905005747 82 228 0.0 0.0 0.00 0.00 0.00 90 1012.8
20260905005242 83 228 0.0 0.0 0.00 0.00 0.00 89 1012.7
20260905004741 84 221 0.0 0.0 0.00 0.00 0.00 88 1012.6
20260905004242 85 221 0.0 0.0 0.00 0.00 0.00 86 1012.8
20260905003742 85 222 0.0 0.0 0.00 0.00 0.00 84 1012.8
20260905003237 85 224 0.0 0.0 0.00 0.00 0.00 82 1012.7
20260905002734 85 224 0.0 0.0 0.00 0.00 0.00 81 1012.9
20260905002234 85 228 0.0 0.0 0.00 0.00 0.00 83 1012.8
20260905001729 85 226 0.0 0.0 0.00 0.00 0.00 85 1012.9
20260905001228 86 228 0.0 0.0 0.00 0.00 0.00 86 1013.0
20260905000724 86 225 0.0 0.0 0.00 0.00 0.00 85 1012.9
20260905000219 86 225 0.0 0.0 0.00 0.00 0.00 84 1012.8
20260904235715 87 225 0.0 0.0 0.00 0.00 0.00 83 1012.8
20260904235209 87 225 0.0 0.0 0.00 0.00 0.00 83 1012.8
20260904234703 87 225 0.0 0.0 0.00 0.00 0.00 83 1012.7
20260904234159 88 225 0.0 0.0 0.00 0.00 0.00 82 1012.7
20260904233655 88 225 0.0 0.0 0.00 0.00 0.00 81 1012.4
20260904233150 88 225 0.0 0.0 0.00 0.00 0.00 78 1012.6
20260904232647 88 225 0.0 0.0 0.00 0.00 0.00 75 1012.8
20260904232143 88 225 0.0 0.0 0.00 0.00 0.00 74 1012.7
20260904231638 88 225 0.0 0.0 0.00 0.00 0.00 72 1012.5
20260904231133 88 225 0.0 0.0 0.00 0.00 0.00 78 1012.4
20260904230632 88 225 0.0 0.0 0.00 0.00 0.00 80 1012.4
20260904230128 88 225 0.0 0.0 0.00 0.00 0.00 80 1012.3
20260904225626 87 225 0.0 0.0 0.00 0.00 0.00 78 1012.4
20260904225120 88 225 0.0 0.0 0.00 0.00 0.00 77 1012.4
20260904224615 88 226 0.0 0.0 0.00 0.00 0.00 75 1012.4
20260904224110 88 223 0.0 0.0 0.00 0.00 0.00 75 1012.3
20260904223609 88 224 0.0 0.0 0.00 0.00 0.00 74 1012.4
20260904223105 88 224 0.0 0.0 0.00 0.00 0.00 73 1012.4
20260904222601 88 222 0.0 0.0 0.00 0.00 0.00 69 1012.4
20260904222056 88 222 0.0 0.0 0.00 0.00 0.00 70 1012.5
20260904221556 88 222 0.0 0.0 0.00 0.00 0.00 70 1012.3
20260904221056 89 222 0.0 0.0 0.00 0.00 0.00 69 1012.5
20260904220550 89 225 0.0 0.0 0.00 0.00 0.00 67 1012.5
20260904220046 88 221 0.0 0.0 0.00 0.00 0.00 65 1012.3
20260904215545 89 222 0.0 0.0 0.00 0.00 0.00 68 1012.5
20260904215036 89 222 0.0 0.0 0.00 0.00 0.00 69 1012.6
20260904214531 89 218 0.0 0.0 0.00 0.00 0.00 68 1012.6
20260904214027 90 219 0.0 0.0 0.00 0.00 0.00 65 1012.6
20260904213524 91 223 0.0 0.0 0.00 0.00 0.00 64 1012.7
20260904213022 91 226 0.0 0.0 0.00 0.00 0.00 63 1012.8
20260904212520 92 223 0.0 0.0 0.00 0.00 0.00 61 1012.7
20260904212016 91 228 0.0 0.0 0.00 0.00 0.00 61 1012.7
20260904211510 93 252 0.0 0.0 0.00 0.00 0.00 60 1012.8
20260904211006 94 219 0.0 0.0 0.00 0.00 0.00 59 1012.4
20260904210505 94 223 0.0 0.0 0.00 0.00 0.00 57 1012.8
20260904210000 94 223 0.0 0.0 0.00 0.00 0.00 57 1012.8
20260904205456 94 220 0.0 0.0 0.00 0.00 0.00 56 1012.9
20260904204953 94 214 0.0 0.0 0.00 0.00 0.00 56 1013.0
20260904204448 94 263 0.0 1.0 0.00 0.00 0.00 55 1012.8
20260904203944 95 212 0.0 0.0 0.00 0.00 0.00 54 1013.2
20260904203440 96 245 0.0 0.0 0.00 0.00 0.00 52 1013.3
20260904202936 96 273 0.0 0.0 0.00 0.00 0.00 53 1013.3
20260904202432 95 217 0.0 0.0 0.00 0.00 0.00 53 1013.3
20260904201928 95 204 0.0 0.0 0.00 0.00 0.00 53 1013.4
20260904201423 95 203 0.0 0.0 0.00 0.00 0.00 54 1013.2
20260904200918 94 201 0.0 0.0 0.00 0.00 0.00 54 1013.5
20260904200417 94 205 0.0 0.0 0.00 0.00 0.00 53 1013.4
20260904195912 94 200 0.0 0.0 0.00 0.00 0.00 54 1013.5
20260904195410 93 200 0.0 0.0 0.00 0.00 0.00 57 1013.4
20260904194905 93 194 0.0 0.0 0.00 0.00 0.00 55 1013.6
20260904194404 94 189 0.0 0.0 0.00 0.00 0.00 56 1013.8
20260904193859 94 207 0.0 0.0 0.00 0.00 0.00 54 1013.8